Northfield, Minnesota, United States (55057)
Lat: 44.46N, Lon: 93.16W
Wx Zone: MNZ077
Local Info
Past Weather Observations for Today

NOTE: This archive is for the closest National Weather Service station to Northfield. Information may differ from the station used for current weather conditions.

Click here for Long-term Archive

Time Weather Temperature Dewpoint Humidity Pressure Winds Precip Visibility
23:30
Clear
45°F / 7°C 41°F / 5°C 87% 30.09 in
(1019 mb)
ENE 4.6 mph
(ENE 7 kph)
- 10SM
23:10
Clear
45°F / 7°C 41°F / 5°C 87% 30.09 in
(1019 mb)
ENE 4.6 mph
(ENE 7 kph)
- 10SM
22:51
Clear
45°F / 7°C 43°F / 6°C 93% 30.09 in
(1019 mb)
Calm - 10SM
22:30
Clear
46°F / 8°C 43°F / 6°C 87% 30.09 in
(1019 mb)
NE 5.8 mph
(NE 9 kph)
- 10SM
22:11
Clear
46°F / 8°C 43°F / 6°C 87% 30.09 in
(1019 mb)
NE 4.6 mph
(NE 7 kph)
- 10SM
21:50
Clear
48°F / 9°C 43°F / 6°C 82% 30.09 in
(1019 mb)
NE 5.8 mph
(NE 9 kph)
- 10SM
21:30
Clear
48°F / 9°C 43°F / 6°C 82% 30.09 in
(1019 mb)
NE 4.6 mph
(NE 7 kph)
- 10SM
21:11
Clear
48°F / 9°C 45°F / 7°C 87% 30.09 in
(1019 mb)
NE 5.8 mph
(NE 9 kph)
- 10SM
20:50
Clear
48°F / 9°C 45°F / 7°C 87% 30.09 in
(1019 mb)
NE 6.9 mph
(NE 11 kph)
- 10SM
20:30
Clear
50°F / 10°C 45°F / 7°C 82% 30.09 in
(1019 mb)
NE 6.9 mph
(NE 11 kph)
- 10SM
20:11
Clear
50°F / 10°C 45°F / 7°C 82% 30.09 in
(1019 mb)
NE 8.1 mph
(NE 13 kph)
- 10SM
19:51
Clear
50°F / 10°C 45°F / 7°C 82% 30.09 in
(1019 mb)
ENE 5.8 mph
(ENE 9 kph)
- 10SM
19:31
Clear
50°F / 10°C 45°F / 7°C 82% 30.09 in
(1019 mb)
Calm - 10SM
19:11
Partly Cloudy
52°F / 11°C 46°F / 8°C 82% 30.09 in
(1019 mb)
NE 4.6 mph
(NE 7 kph)
- 10SM
18:50
Mostly Cloudy
54°F / 12°C 46°F / 8°C 77% 30.09 in
(1019 mb)
NNE 5.8 mph
(NNE 9 kph)
- 10SM
18:31
Overcast
54°F / 12°C 46°F / 8°C 77% 30.09 in
(1019 mb)
NNE 5.8 mph
(NNE 9 kph)
- 10SM
18:11
Overcast
55°F / 13°C 46°F / 8°C 72% 30.09 in
(1019 mb)
NNE 9.2 mph
(NNE 15 kph)
- 10SM
17:50
Overcast
57°F / 14°C 46°F / 8°C 67% 30.09 in
(1019 mb)
NE 9.2 mph
(NE 15 kph)
- 10SM
17:31
Overcast
57°F / 14°C 46°F / 8°C 67% 30.09 in
(1019 mb)
NNE 6.9 mph
(NNE 11 kph)
- 10SM
17:11
Overcast
57°F / 14°C 46°F / 8°C 67% 30.09 in
(1019 mb)
NE 11.5 mph
(NE 19 kph)
- 10SM
16:50
Overcast
59°F / 15°C 46°F / 8°C 63% 30.09 in
(1019 mb)
N 11.5 mph
(N 19 kph)
- 10SM
16:31
Overcast
59°F / 15°C 48°F / 9°C 68% 30.09 in
(1019 mb)
NNE 9.2 mph
(NNE 15 kph)
- 10SM
16:10
Overcast
59°F / 15°C 48°F / 9°C 68% 30.09 in
(1019 mb)
N 11.5 mph
(N 19 kph)
- 10SM
15:51
Overcast
59°F / 15°C 48°F / 9°C 68% 30.09 in
(1019 mb)
NE 9.2 mph
(NE 15 kph)
- 10SM
15:31
Overcast
61°F / 16°C 48°F / 9°C 63% 30.09 in
(1019 mb)
NE 10.4 mph
(NE 17 kph)
- 10SM
15:10
Overcast
59°F / 15°C 48°F / 9°C 68% 30.09 in
(1019 mb)
NE 6.9 mph
(NE 11 kph)
- 10SM
14:50
Overcast
59°F / 15°C 48°F / 9°C 68% 30.09 in
(1019 mb)
N 8.1 mph
(N 13 kph)
- 10SM
14:31
Overcast
59°F / 15°C 48°F / 9°C 68% 30.09 in
(1019 mb)
NE 10.4 mph
(NE 17 kph)
- 10SM
14:10
Overcast
61°F / 16°C 48°F / 9°C 63% 30.09 in
(1019 mb)
NNE 8.1 mph
(NNE 13 kph)
- 10SM
13:50
Overcast
59°F / 15°C 48°F / 9°C 68% 30.09 in
(1019 mb)
N 6.9 mph
(N 11 kph)
- 10SM
13:31
Overcast
59°F / 15°C 48°F / 9°C 68% 30.09 in
(1019 mb)
NE 9.2 mph
(NE 15 kph)
- 10SM
13:10
Overcast
59°F / 15°C 48°F / 9°C 68% 30.09 in
(1019 mb)
NE 9.2 mph
(NE 15 kph)
- 10SM
12:51
Overcast
57°F / 14°C 48°F / 9°C 72% 30.12 in
(1020 mb)
NE 9.2 mph
(NE 15 kph)
- 10SM
12:30
Overcast
57°F / 14°C 48°F / 9°C 72% 30.12 in
(1020 mb)
NE 9.2 mph
(NE 15 kph)
- 10SM
12:10
Overcast
55°F / 13°C 48°F / 9°C 77% 30.12 in
(1020 mb)
NE 10.4 mph
(NE 17 kph)
- 10SM
11:51
Overcast
55°F / 13°C 48°F / 9°C 77% 30.12 in
(1020 mb)
NE 10.4 mph
(NE 17 kph)
- 10SM
11:30
Overcast
55°F / 13°C 48°F / 9°C 77% 30.12 in
(1020 mb)
NNE 10.4 mph
(NNE 17 kph)
- 10SM
11:10
Overcast
55°F / 13°C 48°F / 9°C 77% 30.12 in
(1020 mb)
NE 10.4 mph
(NE 17 kph)
- 10SM
10:51
Overcast
57°F / 14°C 48°F / 9°C 72% 30.12 in
(1020 mb)
NNE 11.5 mph
(NNE 19 kph)
- 10SM
10:31
Mostly Cloudy
57°F / 14°C 48°F / 9°C 72% 30.12 in
(1020 mb)
NNE 10.4 mph
(NNE 17 kph)
- 10SM
10:10
Overcast
55°F / 13°C 48°F / 9°C 77% 30.12 in
(1020 mb)
NNE 15 mph
(NNE 24 kph)
- 10SM
09:51
Overcast
57°F / 14°C 48°F / 9°C 72% 30.12 in
(1020 mb)
NE 12.7 mph
(NE 20 kph)
- 10SM
09:30
Overcast
57°F / 14°C 50°F / 10°C 77% 30.12 in
(1020 mb)
N 16.1 mph
(N 26 kph)
- 10SM
09:11
Overcast
57°F / 14°C 50°F / 10°C 77% 30.09 in
(1019 mb)
N 11.5 mph
(N 19 kph)
- 10SM
08:50
Overcast
57°F / 14°C 52°F / 11°C 82% 30.09 in
(1019 mb)
NNE 9.2 mph
(NNE 15 kph)
- 10SM
08:31
Overcast
57°F / 14°C 52°F / 11°C 82% 30.09 in
(1019 mb)
N 11.5 mph
(N 19 kph)
- 10SM
08:10
Overcast
59°F / 15°C 54°F / 12°C 82% 30.09 in
(1019 mb)
N 10.4 mph
(N 17 kph)
- 10SM
07:50
Overcast
59°F / 15°C 54°F / 12°C 82% 30.09 in
(1019 mb)
N 11.5 mph
(N 19 kph)
- 10SM
07:31
Overcast
59°F / 15°C 55°F / 13°C 88% 30.09 in
(1019 mb)
N 10.4 mph
(N 17 kph)
- 10SM
07:10
Overcast
59°F / 15°C 55°F / 13°C 88% 30.06 in
(1018 mb)
N 13.8 mph
(N 22 kph)
- 10SM
06:50
Overcast
61°F / 16°C 55°F / 13°C 83% 30.06 in
(1018 mb)
N 9.2 mph
(N 15 kph)
- 10SM
06:31
Overcast
63°F / 17°C 57°F / 14°C 83% 30.06 in
(1018 mb)
N 10.4 mph
(N 17 kph)
- 10SM
06:10
Overcast
63°F / 17°C 59°F / 15°C 88% 30.04 in
(1017 mb)
N 8.1 mph
(N 13 kph)
- 10SM
05:51
Overcast
63°F / 17°C 59°F / 15°C 88% 30.04 in
(1017 mb)
N 6.9 mph
(N 11 kph)
- 7SM
05:30
Overcast
63°F / 17°C 59°F / 15°C 88% 30.04 in
(1017 mb)
N 6.9 mph
(N 11 kph)
- 7SM
05:10
Overcast
63°F / 17°C 59°F / 15°C 88% 30.04 in
(1017 mb)
N 3.5 mph
(N 6 kph)
- 7SM
04:51
Overcast
63°F / 17°C 59°F / 15°C 88% 30.04 in
(1017 mb)
N 6.9 mph
(N 11 kph)
- 7SM
04:30
Overcast
63°F / 17°C 59°F / 15°C 88% 30.04 in
(1017 mb)
N 8.1 mph
(N 13 kph)
- 7SM
04:10
Overcast
61°F / 16°C 57°F / 14°C 88% 30.04 in
(1017 mb)
NNW 6.9 mph
(NNW 11 kph)
- 7SM
03:51
Partly Cloudy
59°F / 15°C 55°F / 13°C 88% 30.04 in
(1017 mb)
N 5.8 mph
(N 9 kph)
- 10SM
03:30
Mostly Cloudy
59°F / 15°C 55°F / 13°C 88% 30.04 in
(1017 mb)
NW 3.5 mph
(NW 6 kph)
- 10SM
03:10
Overcast
61°F / 16°C 55°F / 13°C 83% 30.04 in
(1017 mb)
Calm - 10SM
02:51
Mostly Cloudy
61°F / 16°C 55°F / 13°C 83% 30.04 in
(1017 mb)
Calm - 10SM
02:30
Overcast
61°F / 16°C 57°F / 14°C 88% 30.04 in
(1017 mb)
Calm - 10SM
02:11
Overcast
63°F / 17°C 57°F / 14°C 83% 30.04 in
(1017 mb)
Calm - 10SM
01:51
Overcast
63°F / 17°C 55°F / 13°C 77% 30.04 in
(1017 mb)
Calm - 10SM
01:30
Overcast
63°F / 17°C 55°F / 13°C 77% 30.04 in
(1017 mb)
SW 4.6 mph
(SW 7 kph)
- 10SM
01:11
Overcast
64°F / 18°C 55°F / 13°C 73% 30.01 in
(1016 mb)
SW 3.5 mph
(SW 6 kph)
- 10SM
00:51
Overcast
63°F / 17°C 55°F / 13°C 77% 30.01 in
(1016 mb)
SSE 3.5 mph
(SSE 6 kph)
- 10SM
00:30
Mostly Cloudy
61°F / 16°C 55°F / 13°C 83% 30.01 in
(1016 mb)
SSE 3.5 mph
(SSE 6 kph)
- 10SM
00:11
Partly Cloudy
61°F / 16°C 54°F / 12°C 77% 30.01 in
(1016 mb)
SW 3.5 mph
(SW 6 kph)
- 10SM
Time Weather Temperature Dewpoint Humidity Pressure Winds Precip Visibility


Weather for websites

WeatherForYou.com, LLC is not responsible for any damages or problems caused by this service. Current weather conditions are obtained from the closest station including government and personal stations which may have varying degrees of accuracy. Weather forecasts are derived from the NOAA NDFD. Like all things, this site belongs to Jesus Christ... He just trusts me to maintain it. If you have any questions or comments email webmaster@weatherforyou.com

Copyright © 2014, WeatherForYou.com LLC. All rights reserved.